Nashua, NH

8:17 AM EDT on August 27, 2016 (GMT -0400)
Boire

Weather History for KASH - April, 2014

Change the Weather History Date:

Friday, April 11, 2014

  Actual Average Record
Temperature  
Mean Temperature 60 °F -  
Max Temperature 70 °F 52 °F 79 °F (2011)
Min Temperature 47 °F 30 °F 18 °F (1950)
Degree Days  
Heating Degree Days 5    
Growing Degree Days 10 (Base 50)    
Moisture  
Dew Point 40 °F    
Average Humidity 55    
Maximum Humidity 97    
Minimum Humidity 32    
Precipitation  
Precipitation 0.10 in - - ()
Sea Level Pressure  
Sea Level Pressure 30.70 in    
Wind  
Wind Speed 5 mph (West)    
Max Wind Speed 13 mph    
Max Gust Speed 22 mph    
Visibility 10 miles    
Events Rain    
Averages and records for this station are not official NWS values.
T = Trace of Precipitation, MM = Missing Value Source: NWS Daily Summary

Daily Weather History Graph

Daily Weather History Graph

Search for Another Location

Airport or City:

Trip Planner

Search our weather history database for the weather conditions in past years. The results will help you decide how hot, cold, wet, or windy it might be!

Date:

Astronomy

Apr. 11, 2014 Rise Set
Actual Time 6:11 AM EDT 7:23 PM EDT
Civil Twilight 5:42 AM EDT 7:52 PM EDT
Nautical Twilight 5:07 AM EDT 8:27 PM EDT
Astronomical Twilight 4:30 AM EDT 9:04 PM EDT
Moon 3:56 PM EDT (4/11) 4:09 AM EDT (4/11)
Length of Visible Light 14h 10m
Length of Day
13h 12m
Waxing Gibbous, 87% of the Moon is Illuminated
Apr 11
Waxing Gibbous
Apr 15
Full
Apr 22
Last Quarter
Apr 29
New
May 6
First Quarter

Hourly Weather History & Observations

Time (EDT) Temp. Dew Point Humidity Pressure Visibility Wind Dir Wind Speed Gust Speed Precip Events Conditions
12:51 AM 50.9 °F 31.1 °F 47% 30.69 in 10.0 mi SSW 8.1 mph - 0.00 in Rain Light Rain
1:51 AM 54.0 °F 32.9 °F 45% 30.68 in 10.0 mi Variable 6.9 mph - 0.00 in   Scattered Clouds
2:51 AM 54.0 °F 32.9 °F 45% 30.64 in 10.0 mi South 8.1 mph - N/A   Partly Cloudy
4:51 AM 52.9 °F 32.0 °F 45% 30.64 in 10.0 mi Calm Calm - N/A   Overcast
5:51 AM 50.9 °F 32.9 °F 50% 30.66 in 10.0 mi Calm Calm - N/A   Clear
6:51 AM 50.0 °F 34.9 °F 56% 30.68 in 10.0 mi Calm Calm - N/A   Scattered Clouds
7:51 AM 50.9 °F 34.0 °F 52% 30.69 in 10.0 mi Calm Calm - N/A   Partly Cloudy
8:51 AM 54.0 °F 34.9 °F 49% 30.72 in 10.0 mi Calm Calm - N/A   Partly Cloudy
10:51 AM 63.0 °F 37.9 °F 40% 30.70 in 10.0 mi West 6.9 mph - N/A   Partly Cloudy
11:51 AM 65.8 °F 41.9 °F 42% 30.69 in 10.0 mi West 10.4 mph 18.4 mph N/A   Clear
12:51 PM 66.9 °F 41.9 °F 40% 30.67 in 10.0 mi WNW 12.7 mph 21.9 mph N/A   Clear
1:51 PM 70.0 °F 41.9 °F 36% 30.67 in 10.0 mi West 11.5 mph 18.4 mph N/A   Mostly Cloudy
2:51 PM 70.0 °F 38.8 °F 32% 30.65 in 10.0 mi NNW 11.5 mph 21.9 mph N/A   Scattered Clouds
4:51 PM 65.8 °F 43.0 °F 43% 30.65 in 10.0 mi Calm Calm - 0.00 in Rain Light Rain
5:51 PM 56.8 °F 50.0 °F 78% 30.71 in 5.0 mi Calm Calm - 0.01 in Rain Light Rain
6:51 PM 55.9 °F 46.9 °F 72% 30.72 in 10.0 mi Variable 5.8 mph - 0.01 in Rain Light Rain
7:51 PM 54.9 °F 48.9 °F 80% 30.72 in 10.0 mi Calm Calm - 0.00 in   Overcast
8:51 PM 54.9 °F 45.9 °F 72% 30.76 in 10.0 mi Calm Calm - 0.00 in   Overcast
9:51 PM 52.9 °F 41.9 °F 66% 30.76 in 10.0 mi NW 6.9 mph - 0.00 in   Overcast
10:51 PM 52.0 °F 41.9 °F 69% 30.75 in 10.0 mi Calm Calm - 0.01 in Rain Light Rain
11:51 PM 47.8 °F 46.9 °F 97% 30.75 in 4.0 mi Calm Calm - 0.07 in Rain Rain